Regional Weather Roundup
Issued by NWS Columbia, SC

Home | Current Version | Previous Version | Text Only | Print | Product List | Glossary On
Versions: 1 2 3 4 5 6 7 8 9 10 11 12 13 14 15 16 17 18 19 20 21 22 23 24 25 26 27 28 29 30 31 32 33 34 35 36 37 38 39 40 41 42 43 44 45 46 47 48 49 50
000
ASUS42 KCAE 020610
RWRCAE
REGIONAL WEATHER ROUNDUP
NATIONAL WEATHER SERVICE COLUMBIA SC
100 AM EST MON MAR 02 2015

NOTE: "FAIR" INDICATES FEW OR NO CLOUDS BELOW 12,000 FEET WITH NO
SIGNIFICANT WEATHER AND/OR OBSTRUCTIONS TO VISIBILITY.

NOT ALL STATIONS ARE QUALITY CONTROLLED BY THE NATIONAL
WEATHER SERVICE. USE DATA WITH CAUTION...ESPECIALLY
DEWPOINT OBSERVATIONS.

SCZ001>056-GAZ040-063>065-077-020700-
...UPSTATE SOUTH CAROLINA...

CITY           SKY/WX    TMP DP  RH WIND       PRES   REMARKS
ANDERSON       FOG       42  42 100 W3        30.32F VSB 1/4
6HR MIN TEMP:  42; 6HR MAX TEMP:  43;

LIBERTY        FOG       43  43 100 MISG      30.30F VSB 1/4
6HR MIN TEMP:  35; 6HR MAX TEMP:  46;

SPARTANBURG    FOG       45  45 100 SW6       30.28F VSB 3/4
CLEMSON        CLOUDY    45  41  86 CALM      30.32F FOG
6HR MIN TEMP:  45; 6HR MAX TEMP:  46;

GREENVILLE     FOG       43  41  93 W10       30.30F VSB 3/4
6HR MIN TEMP:  43; 6HR MAX TEMP:  45;

GREENWOOD      FOG       42  40  92 SW6       30.33F VSB 1/2
6HR MIN TEMP:  41; 6HR MAX TEMP:  42;

GREER          CLOUDY    43  43 100 SW9       30.28F FOG
6HR MIN TEMP:  42; 6HR MAX TEMP:  44;

ROCK HILL      FOG       39  39 100 SW5       30.30F VSB 1/2
6HR MIN TEMP:  38; 6HR MAX TEMP:  39;

CHESTER        FOG       41  41 100 CALM      30.31F VSB 1/4
LAURENS        FOG       41  41 100 SW8       30.31F VSB 3/4


...CENTRAL SOUTH CAROLINA...

CITY           SKY/WX    TMP DP  RH WIND       PRES   REMARKS
COLUMBIA APT   CLOUDY    43  41  93 SW5       30.33F FOG
6HR MIN TEMP:  41; 6HR MAX TEMP:  43;

COLUMBIA OWENS CLOUDY    42  41  96 CALM      30.34F FOG
6HR MIN TEMP:  41; 6HR MAX TEMP:  43;

DARLINGTON     CLOUDY    39  37  93 SW3       30.32F VSB 3/4
6HR MIN TEMP:  37; 6HR MAX TEMP:  43;

FLORENCE       FOG       41  40  96 W5        30.33F VSB 1/2
6HR MIN TEMP:  39; 6HR MAX TEMP:  42; 6HR PCP: TRACE;

MCENTIRE ANGB  CLOUDY    42  42  99 W3        30.33F FOG
6HR MIN TEMP:  41; 6HR MAX TEMP:  42; 6HR PCP:  0.01;

ORANGEBURG     CLOUDY    43  41  93 NW5       30.35S FOG
6HR MIN TEMP:  41; 6HR MAX TEMP:  43; 6HR PCP:  0.04;

SUMTER SHAW    CLOUDY    41  41 100 SW2       30.31F FOG
6HR MIN TEMP:  40; 6HR MAX TEMP:  41; 6HR PCP:  0.01;

NEWBERRY       FOG       41  41 100 SW5       30.35F VSB 1/4
AIKEN          FOG       43  43 100 W5        30.37F VSB 1/2
BARNWELL       FOG       45  45 100 CALM      30.36F VSB 3/4
MANNING        CLOUDY   N/A N/A N/A CALM      30.34F
CAMDEN         FOG       41  41 100 SW5       30.33F VSB 1/4
LANCASTER      LGT RAIN  39  39 100 W5        30.32F VSB 1/4
WINNSBORO      FOG       41  41 100 CALM      30.31F VSB 1/4


...EASTERN AND COASTAL SOUTH CAROLINA...

CITY           SKY/WX    TMP DP  RH WIND       PRES   REMARKS
MYRTLE BEACH   CLOUDY    43  39  87 CALM      30.35S
6HR MIN TEMP:  43; 6HR MAX TEMP:  45; 6HR PCP:  0.06;

N MYRTLE BCH   CLOUDY    43  41  93 CALM      30.32F FOG
6HR MIN TEMP:  42; 6HR MAX TEMP:  43; 6HR PCP:  0.05;

CONWAY         CLOUDY    41 N/A N/A CALM      30.33F FOG
MARION         CLOUDY    41  41 100 CALM      30.33S FOG
HARTSVILLE     CLOUDY    39  39 100 CALM      30.31F VSB 1/2
FLORENCE       FOG       41  40  96 W5        30.33F VSB 1/2
6HR MIN TEMP:  39; 6HR MAX TEMP:  42; 6HR PCP: TRACE;

DARLINGTON     CLOUDY    39  37  93 SW3       30.32F VSB 3/4
6HR MIN TEMP:  37; 6HR MAX TEMP:  43;

CHARLESTON APT FOG       43  43 100 CALM      30.34F VSB 1/8
6HR MIN TEMP:  43; 6HR MAX TEMP:  44;

MOUNT PLEASANT FOG       45  43  93 NW3       30.34S VSB 1/4
WALTERBORO     FOG       45  45 100 CALM      30.35F VSB 3/4
BEAUFORT       FOG       45  44  97 CALM      30.35F VSB 1/2
6HR MIN TEMP:  45; 6HR MAX TEMP:  46;



...EASTERN GEORGIA...

CITY           SKY/WX    TMP DP  RH WIND       PRES   REMARKS
AUGUSTA BUSH F CLOUDY    43  42  97 NW6       30.36F FOG
6HR MIN TEMP:  42; 6HR MAX TEMP:  43;

AUGUSTA DANIEL FOG       44  42  93 NW5       30.36S VSB 3/4
6HR MIN TEMP:  43; 6HR MAX TEMP:  44; 6HR PCP: TRACE;

THOMSON        CLOUDY    44  44 100 CALM      30.40F VSB 1
6HR MIN TEMP:  43; 6HR MAX TEMP:  44;

WASHINGTON     CLOUDY    43 N/A N/A CALM      30.34F FOG
CLAXTON        FOG       46  46 100 CALM      30.36S VSB 3/4
SYLVANIA       FOG       45  45 100 NW6       30.37R VSB 3/4
6HR MIN TEMP:  44; 6HR MAX TEMP:  45;

STATESBORO     CLOUDY    46  46 100 NW5       30.37R FOG
6HR MIN TEMP:  45; 6HR MAX TEMP:  46;

SAVANNAH       FOG       46  45  96 CALM      30.36F VSB 3/4
6HR MIN TEMP:  46; 6HR MAX TEMP:  49; 6HR PCP: TRACE;



...SOUTHERN NORTH CAROLINA...

CITY           SKY/WX    TMP DP  RH WIND       PRES   REMARKS
CHARLOTTE      FOG       39  37  92 SW6       30.30F VSB 1/2 WCI  35
6HR MIN TEMP:  39; 6HR MAX TEMP:  39;

MONROE         FOG       39  38  96 W7        30.29F VSB 1/2 WCI  34
6HR MIN TEMP:  38; 6HR MAX TEMP:  39;

WADESBORO      FOG       39  38  97 CALM      30.31F VSB 1/2
6HR MIN TEMP:  38; 6HR MAX TEMP:  39;

ROCKINGHAM     FOG       38  38  99 CALM      30.30F VSB 1/2
6HR MIN TEMP:  37; 6HR MAX TEMP:  38; 6HR PCP:  0.01;

RUTHERFORDTON  FOG       40  40 100 CALM      30.29F VSB 1/4
6HR MIN TEMP:  39; 6HR MAX TEMP:  40;

ASHEVILLE      PTCLDY    38  36  92 CALM      30.27F
6HR MIN TEMP:  38; 6HR MAX TEMP:  48;


$$



USA.gov is the U.S. government's official web portal to all federal, state and local government web resources and services.